Retour au catalogue

STARLINK-3912

ActifCommunicationsVLEO
NORAD 52502·PAYLOAD·🇺🇸 United States

Lancé May 6, 2022 depuis Cape Canaveral Space Force Station

Loading…

Prochains Passages (prochaines 24 heures)

TLE

FraisSource: CelesTrak SupGP

Époque: Sep 14, 2026, 21:34 UTC

1 52502C 22049BD  26257.89909722  .00052916  00000+0  15146-2 0  2577
2 52502  53.1568 263.6346 0001158  86.3769 208.7154 15.35359346    10

Suivez STARLINK-3912 en temps réel avec AllMySat

Download on the App Store